Погода в Мелилье

Испания     35°17′28″N   2°56′24″W
темп.,
°C
ветер,
м/с
пор.,
м/с
влажн.,
%
обл.,
%
осадки,
мм/ч
давл.,
гПа
погр.,
м
21 апреля, ср
ср2123:00+17з35695 0.0 1014111
02:00+16з46705 0.0 1013139
05:00+16з45758 0.0 1013123
08:00+15з34757 0.0 1013116
11:00+18з355899 0.0 1014547
14:00+19сз6759100 0.0 1013796
17:00+19зсз56615 0.0 1012630
20:00+18з4766100 0.0 1013538
22 апреля, чт
чт2223:00+18з2372100 0.0 1013124
02:00+16зсз2480100 0.0 1014196
05:00+16зюз2380100 0.0 1012102
08:00+16зсз3482100 0.0 1013203
11:00+17з4671100 0.0 1015580
14:00+18з5772100 0.0 1015716
17:00+19зсз4670100 0.0 1013605
20:00+18з237495 0.0 1014311
23 апреля, пт
пт2323:00+17юз1178100 0.0 101513
02:00+16в228061 0.0 101513
05:00+15в338994 0.0 101473
08:00+15в3491100 0.0 1015151
11:00+17в678097 0.0 1016669
14:00+18в787799 0.1 1016710
17:00+18всв7978100 0.0 1014632
20:00+16в7983100 0.0 1015652
24 апреля, сб
сб2423:00+16в71285100 0.0 1016773
02:00+16всв81287100 0.3 1015780
05:00+16всв6888100 0.1 1014871
08:00+15всв81189100 0.7 1014851
11:00+16всв101288100 0.4 1014820
14:00+16всв91187100 0.6 1012759
17:00+16всв81088100 0.3 1010716
20:00+16всв81289100 0.5 1009848
25 апреля, вс
вс2523:00+16в4691100 0.5 1010621
02:00+16св5692100 1.3 1010465
05:00+16св6992100 0.6 1009613
08:00+16всв679094 0.8 1010478
11:00+16в458268 0.0 1011458
14:00+19всв337220 0.1 1010563
17:00+19всв4466100 0.0 1008547
20:00+18всв21680 0.0 1009310